AVA35 MGGT-SKBO

Flight info

Callsign AVA35
Flight time 2h 40m
Altitude 37000
Route VILDA2 KAPAN UG436 CAT UA317 BITOR DCT
Aircraft A320/M-SDE3FGHIRWY/LB1

Departure

Time 2026-04-22 18:57
Airport La Aurora International Airport (MGGT)

Arrival

Time 2026-04-22 21:38
Airport El Dorado International Airport (SKBO)
Time Latitude Longitude Altitude Speed Heading
2026-04-22 18:33 14.59009 -90.52855 4904 ft 0 kts 286°
2026-04-22 18:49 14.59004 -90.52837 4892 ft 4 kts 283°
2026-04-22 18:49 14.58998 -90.52810 4899 ft 4 kts 278°
2026-04-22 18:49 14.58996 -90.52782 4898 ft 4 kts 267°
2026-04-22 18:50 14.59001 -90.52757 4899 ft 4 kts 233°
2026-04-22 18:50 14.59010 -90.52747 4899 ft 1 kts 197°
2026-04-22 18:52 14.59008 -90.52748 4898 ft 1 kts 197°
2026-04-22 18:52 14.58986 -90.52755 4898 ft 7 kts 197°
2026-04-22 18:53 14.58900 -90.52780 4895 ft 16 kts 189°
2026-04-22 18:53 14.58797 -90.52732 4894 ft 13 kts 128°
2026-04-22 18:53 14.58813 -90.52664 4895 ft 10 kts 24°
2026-04-22 18:53 14.58892 -90.52637 4895 ft 16 kts 18°
2026-04-22 18:54 14.59008 -90.52599 4898 ft 16 kts 17°
2026-04-22 18:54 14.59132 -90.52559 4911 ft 22 kts 18°
2026-04-22 18:54 14.59268 -90.52514 4914 ft 19 kts 17°
2026-04-22 18:54 14.59412 -90.52469 4918 ft 24 kts 18°
2026-04-22 18:55 14.59546 -90.52426 4922 ft 10 kts 17°
2026-04-22 18:55 14.59571 -90.52416 4922 ft 0 kts 30°
2026-04-22 18:56 14.59572 -90.52415 4922 ft 2 kts 31°
2026-04-22 18:56 14.59594 -90.52376 4923 ft 11 kts 83°
2026-04-22 18:56 14.59537 -90.52359 4924 ft 11 kts 197°
2026-04-22 18:56 14.59513 -90.52366 4922 ft 8 kts 196°
2026-04-22 18:57 14.59203 -90.52466 4912 ft 91 kts 197°
2026-04-22 18:57 14.58346 -90.52739 4886 ft 164 kts 197°
2026-04-22 18:57 14.57101 -90.53129 5221 ft 203 kts 197°
2026-04-22 18:57 14.55703 -90.53299 6298 ft 204 kts 175°
2026-04-22 18:58 14.54266 -90.53097 6911 ft 218 kts 169°
2026-04-22 18:58 14.52699 -90.52770 7191 ft 241 kts 168°
2026-04-22 18:58 14.50972 -90.52393 7522 ft 265 kts 168°
2026-04-22 18:58 14.49128 -90.52003 8040 ft 280 kts 168°
2026-04-22 18:59 14.47195 -90.51616 8784 ft 286 kts 169°
2026-04-22 18:59 14.45224 -90.51244 9606 ft 290 kts 169°
2026-04-22 18:59 14.43209 -90.50879 10275 ft 302 kts 169°
2026-04-22 18:59 14.41059 -90.50495 10557 ft 326 kts 169°
2026-04-22 19:00 14.38753 -90.50088 10891 ft 345 kts 169°
2026-04-22 19:00 14.36363 -90.49669 11508 ft 352 kts 170°
2026-04-22 19:00 14.33929 -90.49245 12232 ft 356 kts 170°
2026-04-22 19:00 14.31476 -90.48818 12949 ft 360 kts 170°
2026-04-22 19:01 14.28990 -90.48383 13646 ft 364 kts 170°
2026-04-22 19:01 14.26478 -90.47939 14306 ft 368 kts 170°
2026-04-22 19:01 14.23940 -90.47488 14924 ft 372 kts 171°
2026-04-22 19:01 14.21375 -90.47032 15506 ft 376 kts 170°
2026-04-22 19:02 14.18781 -90.46573 16086 ft 380 kts 170°
2026-04-22 19:02 14.16164 -90.46107 16695 ft 383 kts 169°
2026-04-22 19:02 14.13662 -90.45166 17287 ft 387 kts 147°
2026-04-22 19:02 14.11727 -90.43252 17852 ft 390 kts 123°
2026-04-22 19:03 14.10711 -90.40670 18418 ft 393 kts 99°
2026-04-22 19:03 14.10683 -90.37838 18909 ft 397 kts 84°
2026-04-22 19:03 14.11100 -90.35021 19410 ft 400 kts 78°
2026-04-22 19:03 14.11716 -90.32218 19899 ft 403 kts 76°
2026-04-22 19:04 14.12389 -90.29406 20379 ft 406 kts 77°
2026-04-22 19:04 14.13036 -90.26561 20859 ft 409 kts 78°
2026-04-22 19:04 14.13623 -90.23678 21322 ft 413 kts 79°
2026-04-22 19:04 14.14153 -90.20757 21790 ft 416 kts 80°
2026-04-22 19:05 14.14644 -90.17811 22244 ft 419 kts 81°
2026-04-22 19:05 14.15123 -90.14830 22687 ft 423 kts 81°
2026-04-22 19:05 14.15599 -90.11830 23143 ft 426 kts 81°
2026-04-22 19:05 14.16065 -90.08805 23570 ft 429 kts 85°
2026-04-22 19:06 14.16147 -90.05728 23964 ft 430 kts 95°
2026-04-22 19:06 14.15679 -90.02675 24299 ft 433 kts 106°
2026-04-22 19:06 14.14666 -89.99753 24650 ft 434 kts 117°
2026-04-22 19:07 14.11273 -89.94600 25351 ft 438 kts 129°
2026-04-22 19:07 14.09381 -89.92124 25705 ft 441 kts 129°
2026-04-22 19:07 14.07477 -89.89626 26055 ft 444 kts 129°
2026-04-22 19:07 14.05566 -89.87112 26378 ft 447 kts 129°
2026-04-22 19:08 14.03632 -89.84585 26724 ft 450 kts 130°
2026-04-22 19:08 14.01667 -89.82060 27070 ft 453 kts 130°
2026-04-22 19:08 13.99697 -89.79558 27408 ft 456 kts 130°
2026-04-22 19:08 13.97679 -89.77011 27752 ft 459 kts 131°
2026-04-22 19:09 13.95654 -89.74457 28090 ft 462 kts 131°
2026-04-22 19:09 13.93617 -89.71882 28428 ft 465 kts 131°
2026-04-22 19:09 13.92236 -89.70133 28622 ft 467 kts 131°
2026-04-22 19:09 13.89516 -89.66679 29073 ft 471 kts 131°
2026-04-22 19:10 13.87454 -89.64048 29394 ft 474 kts 131°
2026-04-22 19:10 13.85376 -89.61398 29705 ft 477 kts 130°
2026-04-22 19:10 13.83287 -89.58741 30046 ft 479 kts 131°
2026-04-22 19:10 13.81179 -89.56069 30318 ft 482 kts 131°
2026-04-22 19:11 13.79058 -89.53383 30567 ft 484 kts 131°
2026-04-22 19:11 13.76933 -89.50694 30793 ft 486 kts 131°
2026-04-22 19:11 13.74797 -89.47988 31117 ft 486 kts 131°
2026-04-22 19:11 13.72669 -89.45294 31498 ft 485 kts 131°
2026-04-22 19:12 13.71261 -89.43510 31748 ft 484 kts 131°
2026-04-22 19:12 13.69143 -89.40824 32111 ft 483 kts 131°
2026-04-22 19:12 13.67029 -89.38141 32478 ft 483 kts 131°
2026-04-22 19:12 13.64912 -89.35460 32852 ft 482 kts 131°
2026-04-22 19:13 13.62798 -89.32788 33224 ft 481 kts 131°
2026-04-22 19:13 13.60681 -89.30117 33594 ft 481 kts 131°
2026-04-22 19:13 13.58571 -89.27457 33982 ft 480 kts 131°
2026-04-22 19:13 13.56478 -89.24815 34316 ft 479 kts 131°
2026-04-22 19:14 13.54381 -89.22164 34672 ft 477 kts 131°
2026-04-22 19:14 13.52289 -89.19517 35058 ft 476 kts 131°
2026-04-22 19:14 13.50209 -89.16883 35405 ft 474 kts 131°
2026-04-22 19:14 13.48132 -89.14254 35682 ft 474 kts 131°
2026-04-22 19:15 13.46046 -89.11616 35939 ft 475 kts 131°
2026-04-22 19:15 13.44008 -89.08946 36214 ft 476 kts 126°
2026-04-22 19:15 13.42334 -89.06013 36407 ft 477 kts 117°
2026-04-22 19:15 13.40969 -89.02903 36680 ft 478 kts 116°
2026-04-22 19:16 13.39614 -88.99788 36913 ft 478 kts 116°
2026-04-22 19:16 13.36895 -88.93560 36969 ft 477 kts 116°
2026-04-22 19:17 13.34178 -88.87356 36955 ft 476 kts 116°
2026-04-22 19:17 13.31468 -88.81163 36964 ft 474 kts 116°
2026-04-22 19:18 13.28769 -88.74988 36950 ft 474 kts 116°
2026-04-22 19:18 13.26067 -88.68821 36940 ft 474 kts 116°
2026-04-22 19:19 13.23381 -88.62680 36943 ft 474 kts 116°
2026-04-22 19:19 13.20681 -88.56520 36935 ft 474 kts 116°
2026-04-22 19:20 13.17968 -88.50340 36945 ft 474 kts 116°
2026-04-22 19:20 13.15263 -88.44174 36952 ft 473 kts 116°
2026-04-22 19:21 13.12553 -88.38000 36947 ft 472 kts 116°
2026-04-22 19:21 13.09867 -88.31865 36958 ft 472 kts 116°
2026-04-22 19:22 13.07170 -88.25733 36953 ft 471 kts 116°
2026-04-22 19:22 13.04482 -88.19647 36975 ft 471 kts 116°
2026-04-22 19:23 13.01776 -88.13532 36981 ft 471 kts 116°
2026-04-22 19:23 12.99074 -88.07417 36974 ft 471 kts 116°
2026-04-22 19:24 12.96373 -88.01310 36970 ft 470 kts 116°
2026-04-22 19:24 12.93673 -87.95203 36977 ft 470 kts 116°
2026-04-22 19:25 12.90978 -87.89096 36974 ft 470 kts 116°
2026-04-22 19:25 12.88278 -87.82988 36969 ft 470 kts 116°
2026-04-22 19:26 12.85564 -87.76888 36976 ft 470 kts 116°
2026-04-22 19:26 12.82845 -87.70796 36973 ft 470 kts 116°
2026-04-22 19:27 12.80151 -87.64742 36968 ft 470 kts 116°
2026-04-22 19:27 12.77417 -87.58615 36960 ft 470 kts 116°
2026-04-22 19:28 12.74707 -87.52564 36961 ft 470 kts 116°
2026-04-22 19:28 12.71978 -87.46471 36960 ft 471 kts 116°
2026-04-22 19:29 12.69250 -87.40363 36954 ft 471 kts 116°
2026-04-22 19:29 12.66522 -87.34258 36958 ft 471 kts 116°
2026-04-22 19:30 12.64247 -87.29175 36957 ft 472 kts 117°
2026-04-22 19:30 12.61043 -87.22040 36959 ft 472 kts 117°
2026-04-22 19:31 12.58301 -87.15930 36947 ft 472 kts 117°
2026-04-22 19:31 12.55562 -87.09818 36940 ft 472 kts 117°
2026-04-22 19:32 12.52823 -87.03696 36953 ft 473 kts 117°
2026-04-22 19:32 12.50081 -86.97582 36958 ft 472 kts 117°
2026-04-22 19:33 12.47352 -86.91496 36967 ft 473 kts 117°
2026-04-22 19:33 12.44607 -86.85382 36952 ft 473 kts 117°
2026-04-22 19:34 12.41856 -86.79257 36938 ft 473 kts 117°
2026-04-22 19:34 12.39106 -86.73144 36943 ft 473 kts 117°
2026-04-22 19:35 12.36353 -86.67026 36941 ft 473 kts 117°
2026-04-22 19:35 12.34065 -86.61940 36943 ft 473 kts 117°
2026-04-22 19:36 12.30843 -86.54799 36942 ft 473 kts 117°
2026-04-22 19:36 12.28084 -86.48685 36942 ft 474 kts 117°
2026-04-22 19:37 12.25322 -86.42567 36948 ft 474 kts 117°
2026-04-22 19:37 12.22564 -86.36449 36945 ft 474 kts 117°
2026-04-22 19:38 12.19808 -86.30330 36945 ft 474 kts 117°
2026-04-22 19:38 12.17047 -86.24210 36928 ft 474 kts 117°
2026-04-22 19:39 12.14250 -86.18114 36933 ft 473 kts 121°
2026-04-22 19:39 12.10639 -86.12538 36929 ft 470 kts 128°
2026-04-22 19:40 12.06887 -86.07078 36922 ft 470 kts 128°
2026-04-22 19:40 12.03136 -86.01609 36928 ft 470 kts 128°
2026-04-22 19:41 11.99382 -85.96141 36938 ft 469 kts 128°
2026-04-22 19:41 11.95641 -85.90689 36953 ft 468 kts 128°
2026-04-22 19:42 11.91905 -85.85248 36965 ft 467 kts 128°
2026-04-22 19:42 11.88189 -85.79847 36964 ft 467 kts 128°
2026-04-22 19:43 11.82588 -85.71706 36968 ft 467 kts 128°
2026-04-22 19:43 11.78858 -85.66281 36958 ft 466 kts 128°
2026-04-22 19:44 11.75131 -85.60859 36957 ft 466 kts 128°
2026-04-22 19:44 11.71405 -85.55450 36960 ft 466 kts 128°
2026-04-22 19:45 11.67665 -85.50024 36960 ft 466 kts 128°
2026-04-22 19:45 11.63927 -85.44611 36952 ft 466 kts 128°
2026-04-22 19:46 11.60201 -85.39211 36967 ft 465 kts 128°
2026-04-22 19:46 11.56488 -85.33819 36972 ft 464 kts 128°
2026-04-22 19:47 11.52886 -85.28363 36966 ft 464 kts 126°
2026-04-22 19:47 11.49385 -85.22830 36965 ft 464 kts 126°
2026-04-22 19:48 11.45881 -85.17313 36958 ft 463 kts 126°
2026-04-22 19:48 11.42370 -85.11853 36952 ft 463 kts 126°
2026-04-22 19:49 11.38808 -85.06333 36951 ft 463 kts 126°
2026-04-22 19:49 11.35289 -85.00877 36953 ft 463 kts 126°
2026-04-22 19:50 11.31755 -84.95397 36950 ft 463 kts 126°
2026-04-22 19:50 11.28220 -84.89918 36951 ft 463 kts 126°
2026-04-22 19:51 11.24685 -84.84441 36940 ft 463 kts 126°
2026-04-22 19:51 11.21132 -84.78947 36940 ft 463 kts 126°
2026-04-22 19:52 11.17589 -84.73465 36940 ft 463 kts 126°
2026-04-22 19:52 11.14059 -84.68013 36949 ft 463 kts 126°
2026-04-22 19:53 11.10514 -84.62530 36944 ft 463 kts 126°
2026-04-22 19:53 11.06971 -84.57050 36944 ft 464 kts 126°
2026-04-22 19:54 11.03953 -84.52547 36939 ft 462 kts 129°
2026-04-22 19:54 11.00095 -84.47309 36952 ft 462 kts 131°
2026-04-22 19:55 10.96175 -84.42130 36947 ft 462 kts 130°
2026-04-22 19:55 10.92298 -84.36911 36952 ft 462 kts 130°
2026-04-22 19:56 10.88466 -84.31657 36953 ft 462 kts 129°
2026-04-22 19:56 10.84631 -84.26397 36954 ft 462 kts 130°
2026-04-22 19:57 10.80780 -84.21160 36956 ft 462 kts 130°
2026-04-22 19:57 10.76932 -84.15924 36960 ft 462 kts 130°
2026-04-22 19:58 10.73099 -84.10698 36955 ft 462 kts 130°
2026-04-22 19:58 10.69202 -84.05454 36962 ft 462 kts 131°
2026-04-22 20:00 10.54592 -83.88194 36967 ft 461 kts 134°
2026-04-22 20:01 10.50463 -83.83236 36975 ft 461 kts 133°
2026-04-22 20:01 10.46616 -83.77989 36978 ft 462 kts 127°
2026-04-22 20:02 10.43034 -83.72594 36973 ft 462 kts 127°
2026-04-22 20:02 10.39433 -83.67191 36973 ft 462 kts 127°
2026-04-22 20:03 10.35824 -83.61790 36981 ft 462 kts 127°
2026-04-22 20:03 10.32212 -83.56388 36977 ft 462 kts 127°
2026-04-22 20:04 10.28605 -83.50998 36978 ft 462 kts 127°
2026-04-22 20:04 10.25000 -83.45590 36972 ft 462 kts 127°
2026-04-22 20:05 10.21396 -83.40194 36978 ft 462 kts 127°
2026-04-22 20:05 10.17788 -83.34798 36979 ft 462 kts 127°
2026-04-22 20:06 10.14172 -83.29403 36970 ft 462 kts 127°
2026-04-22 20:06 10.10559 -83.24009 36971 ft 462 kts 127°
2026-04-22 20:07 10.06958 -83.18616 36971 ft 461 kts 127°
2026-04-22 20:07 10.03358 -83.13223 36969 ft 461 kts 126°
2026-04-22 20:08 9.99753 -83.07844 36968 ft 461 kts 127°
2026-04-22 20:08 9.96348 -83.02315 36967 ft 464 kts 117°
2026-04-22 20:09 9.94217 -82.96158 36963 ft 466 kts 110°
2026-04-22 20:09 9.92209 -82.89906 36968 ft 466 kts 110°
2026-04-22 20:10 9.90187 -82.83647 36961 ft 466 kts 110°
2026-04-22 20:10 9.88173 -82.77394 36961 ft 466 kts 110°
2026-04-22 20:11 9.86165 -82.71139 36958 ft 466 kts 110°
2026-04-22 20:11 9.84153 -82.64879 36958 ft 467 kts 110°
2026-04-22 20:12 9.82153 -82.58623 36960 ft 467 kts 110°
2026-04-22 20:12 9.80419 -82.53434 36957 ft 466 kts 111°
2026-04-22 20:13 9.77893 -82.46192 36961 ft 466 kts 111°
2026-04-22 20:13 9.75718 -82.40001 36967 ft 466 kts 111°
2026-04-22 20:14 9.73576 -82.33844 36968 ft 465 kts 111°
2026-04-22 20:14 9.71441 -82.27674 36978 ft 463 kts 111°
2026-04-22 20:15 9.69308 -82.21524 36979 ft 462 kts 111°
2026-04-22 20:15 9.67175 -82.15397 36978 ft 461 kts 111°
2026-04-22 20:16 9.65036 -82.09267 36972 ft 460 kts 111°
2026-04-22 20:16 9.62908 -82.03155 36969 ft 460 kts 111°
2026-04-22 20:17 9.60779 -81.97042 36969 ft 460 kts 111°
2026-04-22 20:17 9.58652 -81.90940 36965 ft 460 kts 111°
2026-04-22 20:18 9.56523 -81.84836 36963 ft 459 kts 111°
2026-04-22 20:18 9.54394 -81.78732 36965 ft 459 kts 111°
2026-04-22 20:19 9.52279 -81.72667 36959 ft 459 kts 111°
2026-04-22 20:19 9.50149 -81.66566 36963 ft 459 kts 111°
2026-04-22 20:20 9.48009 -81.60470 36955 ft 459 kts 111°
2026-04-22 20:20 9.45878 -81.54361 36960 ft 460 kts 111°
2026-04-22 20:21 9.43753 -81.48251 36955 ft 460 kts 111°
2026-04-22 20:21 9.41620 -81.42153 36955 ft 460 kts 111°
2026-04-22 20:22 9.39473 -81.36043 36955 ft 460 kts 111°
2026-04-22 20:22 9.37333 -81.29946 36956 ft 460 kts 111°
2026-04-22 20:23 9.35195 -81.23845 36957 ft 459 kts 111°
2026-04-22 20:23 9.33061 -81.17750 36967 ft 458 kts 111°
2026-04-22 20:24 9.30924 -81.11681 36970 ft 457 kts 111°
2026-04-22 20:24 9.28787 -81.05620 36974 ft 456 kts 111°
2026-04-22 20:25 9.26420 -80.99684 36964 ft 454 kts 121°
2026-04-22 20:25 9.22870 -80.94427 36958 ft 452 kts 127°
2026-04-22 20:26 9.19234 -80.89272 36953 ft 452 kts 127°
2026-04-22 20:26 9.15583 -80.84088 36953 ft 452 kts 127°
2026-04-22 20:27 9.11933 -80.78911 36955 ft 452 kts 127°
2026-04-22 20:27 9.08279 -80.73734 36952 ft 452 kts 127°
2026-04-22 20:28 9.04626 -80.68559 36952 ft 452 kts 127°
2026-04-22 20:28 9.00976 -80.63386 36955 ft 452 kts 127°
2026-04-22 20:29 8.97321 -80.58216 36950 ft 452 kts 127°
2026-04-22 20:29 8.93668 -80.53042 36954 ft 451 kts 127°
2026-04-22 20:30 8.90026 -80.47883 36965 ft 450 kts 127°
2026-04-22 20:30 8.86382 -80.42747 36961 ft 449 kts 128°
2026-04-22 20:31 8.82743 -80.37618 36960 ft 448 kts 127°
2026-04-22 20:31 8.79115 -80.32494 36945 ft 448 kts 127°
2026-04-22 20:32 8.75492 -80.27378 36932 ft 448 kts 128°
2026-04-22 20:32 8.71860 -80.22252 36935 ft 448 kts 127°
2026-04-22 20:33 8.68231 -80.17137 36940 ft 447 kts 127°
2026-04-22 20:33 8.64604 -80.12022 36920 ft 447 kts 127°
2026-04-22 20:34 8.60979 -80.06904 36914 ft 448 kts 128°
2026-04-22 20:34 8.57960 -80.02653 36923 ft 448 kts 127°
2026-04-22 20:35 8.53742 -79.96705 36909 ft 448 kts 127°
2026-04-22 20:35 8.50101 -79.91591 36902 ft 448 kts 127°
2026-04-22 20:36 8.46459 -79.86477 36895 ft 449 kts 127°
2026-04-22 20:36 8.43408 -79.82185 36896 ft 449 kts 127°
2026-04-22 20:37 8.39787 -79.77085 36898 ft 449 kts 127°
2026-04-22 20:37 8.36145 -79.71961 36899 ft 449 kts 127°
2026-04-22 20:38 8.32510 -79.66855 36903 ft 449 kts 127°
2026-04-22 20:38 8.28851 -79.61716 36906 ft 449 kts 127°
2026-04-22 20:39 8.25220 -79.56615 36907 ft 449 kts 127°
2026-04-22 20:39 8.21572 -79.51495 36905 ft 449 kts 127°
2026-04-22 20:40 8.17922 -79.46377 36900 ft 449 kts 127°
2026-04-22 20:40 8.14292 -79.41285 36905 ft 449 kts 127°
2026-04-22 20:41 8.10651 -79.36178 36911 ft 448 kts 127°
2026-04-22 20:41 8.07009 -79.31076 36914 ft 448 kts 127°
2026-04-22 20:42 8.03375 -79.25979 36914 ft 447 kts 127°
2026-04-22 20:42 7.99738 -79.20875 36915 ft 447 kts 127°
2026-04-22 20:43 7.96101 -79.15779 36916 ft 447 kts 127°
2026-04-22 20:43 7.92460 -79.10689 36909 ft 447 kts 127°
2026-04-22 20:44 7.88825 -79.05607 36910 ft 447 kts 127°
2026-04-22 20:44 7.85193 -79.00531 36916 ft 446 kts 127°
2026-04-22 20:45 7.81573 -78.95467 36919 ft 445 kts 127°
2026-04-22 20:45 7.77962 -78.90415 36918 ft 443 kts 127°
2026-04-22 20:46 7.72548 -78.82848 36913 ft 442 kts 127°
2026-04-22 20:46 7.68950 -78.77823 36911 ft 442 kts 127°
2026-04-22 20:47 7.65366 -78.72830 36909 ft 442 kts 127°
2026-04-22 20:47 7.61766 -78.67812 36912 ft 441 kts 127°
2026-04-22 20:48 7.58157 -78.62768 36914 ft 441 kts 127°
2026-04-22 20:48 7.54577 -78.57765 36914 ft 440 kts 127°
2026-04-22 20:49 7.51021 -78.52805 36910 ft 439 kts 127°
2026-04-22 20:49 7.47440 -78.47825 36908 ft 439 kts 127°
2026-04-22 20:50 7.43858 -78.42837 36911 ft 439 kts 127°
2026-04-22 20:50 7.40285 -78.37854 36906 ft 438 kts 127°
2026-04-22 20:51 7.36707 -78.32874 36908 ft 438 kts 127°
2026-04-22 20:51 7.33127 -78.27897 36908 ft 438 kts 127°
2026-04-22 20:52 7.29552 -78.22907 36909 ft 438 kts 127°
2026-04-22 20:52 7.25979 -78.17930 36909 ft 438 kts 127°
2026-04-22 20:53 7.22412 -78.12976 36908 ft 439 kts 127°
2026-04-22 20:53 7.18829 -78.08000 36912 ft 439 kts 127°
2026-04-22 20:54 7.15232 -78.03004 36914 ft 439 kts 127°
2026-04-22 20:54 7.11671 -77.98053 36911 ft 439 kts 127°
2026-04-22 20:55 7.08091 -77.93066 36912 ft 439 kts 127°
2026-04-22 20:55 7.04513 -77.88090 36913 ft 439 kts 127°
2026-04-22 20:56 7.00930 -77.83115 36913 ft 438 kts 127°
2026-04-22 20:56 6.97351 -77.78136 36924 ft 438 kts 127°
2026-04-22 20:57 6.93774 -77.73169 36920 ft 438 kts 127°
2026-04-22 20:57 6.90187 -77.68209 36919 ft 438 kts 127°
2026-04-22 20:58 6.86600 -77.63252 36928 ft 438 kts 127°
2026-04-22 20:58 6.83017 -77.58294 36919 ft 438 kts 127°
2026-04-22 20:59 6.79460 -77.53364 36919 ft 438 kts 127°
2026-04-22 20:59 6.75883 -77.48409 36929 ft 437 kts 127°
2026-04-22 21:00 6.72300 -77.43446 36927 ft 437 kts 127°
2026-04-22 21:00 6.68732 -77.38488 36923 ft 437 kts 127°
2026-04-22 21:01 6.65160 -77.33543 36924 ft 437 kts 127°
2026-04-22 21:01 6.61581 -77.28599 36925 ft 437 kts 127°
2026-04-22 21:02 6.58010 -77.23658 36923 ft 437 kts 127°
2026-04-22 21:02 6.54439 -77.18715 36932 ft 437 kts 126°
2026-04-22 21:03 6.50867 -77.13774 36920 ft 437 kts 127°
2026-04-22 21:03 6.47288 -77.08837 36921 ft 437 kts 127°
2026-04-22 21:04 6.43715 -77.03901 36930 ft 436 kts 126°
2026-04-22 21:04 6.40149 -76.98966 36929 ft 436 kts 126°
2026-04-22 21:05 6.36573 -76.94021 36913 ft 436 kts 127°
2026-04-22 21:05 6.33019 -76.89113 36922 ft 436 kts 127°
2026-04-22 21:06 6.29434 -76.84167 36917 ft 436 kts 126°
2026-04-22 21:06 6.25871 -76.79250 36944 ft 436 kts 126°
2026-04-22 21:07 6.22301 -76.74318 36944 ft 436 kts 126°
2026-04-22 21:07 6.18729 -76.69392 36926 ft 436 kts 126°
2026-04-22 21:08 6.15153 -76.64464 36962 ft 436 kts 126°
2026-04-22 21:08 6.11582 -76.59544 36963 ft 436 kts 126°
2026-04-22 21:09 6.08016 -76.54618 36963 ft 436 kts 126°
2026-04-22 21:09 6.04440 -76.49694 36984 ft 436 kts 126°
2026-04-22 21:10 6.00863 -76.44768 36982 ft 437 kts 126°
2026-04-22 21:10 5.97276 -76.39830 36982 ft 437 kts 126°
2026-04-22 21:11 5.93691 -76.34895 37024 ft 438 kts 126°
2026-04-22 21:11 5.90127 -76.29989 37010 ft 437 kts 126°
2026-04-22 21:12 5.86547 -76.25061 37022 ft 436 kts 126°
2026-04-22 21:12 5.82967 -76.20144 37051 ft 436 kts 127°
2026-04-22 21:13 5.79394 -76.15235 37053 ft 435 kts 126°
2026-04-22 21:13 5.75821 -76.10313 36786 ft 436 kts 126°
2026-04-22 21:14 5.74032 -76.07853 36541 ft 437 kts 126°
2026-04-22 21:14 5.72149 -76.05458 36319 ft 437 kts 134°
2026-04-22 21:14 5.69970 -76.03330 36058 ft 438 kts 136°
2026-04-22 21:14 5.67772 -76.01209 35627 ft 438 kts 136°
2026-04-22 21:15 5.65571 -75.99086 35197 ft 439 kts 136°
2026-04-22 21:15 5.63366 -75.96961 34785 ft 440 kts 136°
2026-04-22 21:15 5.61155 -75.94835 34382 ft 441 kts 136°
2026-04-22 21:15 5.58938 -75.92706 33975 ft 442 kts 136°
2026-04-22 21:16 5.56716 -75.90571 33515 ft 443 kts 136°
2026-04-22 21:16 5.54479 -75.88423 33065 ft 446 kts 136°
2026-04-22 21:16 5.52235 -75.86268 32614 ft 448 kts 136°
2026-04-22 21:16 5.49977 -75.84100 32167 ft 450 kts 136°
2026-04-22 21:17 5.47704 -75.81920 31734 ft 453 kts 136°
2026-04-22 21:17 5.45421 -75.79731 31315 ft 455 kts 136°
2026-04-22 21:17 5.43902 -75.78274 31033 ft 455 kts 136°
2026-04-22 21:17 5.41613 -75.76077 30620 ft 454 kts 136°
2026-04-22 21:18 5.39330 -75.73884 30199 ft 453 kts 136°
2026-04-22 21:18 5.37062 -75.71706 29741 ft 451 kts 136°
2026-04-22 21:18 5.34803 -75.69541 29267 ft 447 kts 136°
2026-04-22 21:18 5.32561 -75.67395 28798 ft 444 kts 137°
2026-04-22 21:19 5.30336 -75.65265 28367 ft 441 kts 137°
2026-04-22 21:19 5.28126 -75.63145 27955 ft 438 kts 137°
2026-04-22 21:19 5.25923 -75.61033 27542 ft 437 kts 137°
2026-04-22 21:19 5.23728 -75.58929 27132 ft 436 kts 137°
2026-04-22 21:20 5.21538 -75.56826 26730 ft 435 kts 137°
2026-04-22 21:20 5.19355 -75.54731 26335 ft 432 kts 137°
2026-04-22 21:20 5.17186 -75.52650 25945 ft 430 kts 137°
2026-04-22 21:20 5.15025 -75.50577 25566 ft 429 kts 137°
2026-04-22 21:21 5.12992 -75.48440 25328 ft 429 kts 130°
2026-04-22 21:21 5.11141 -75.46094 25319 ft 429 kts 129°
2026-04-22 21:21 5.09283 -75.43740 25332 ft 430 kts 129°
2026-04-22 21:21 5.07417 -75.41388 25330 ft 431 kts 129°
2026-04-22 21:22 5.05551 -75.39044 25328 ft 430 kts 130°
2026-04-22 21:22 5.03681 -75.36693 25323 ft 431 kts 129°
2026-04-22 21:22 5.01813 -75.34343 25301 ft 431 kts 129°
2026-04-22 21:22 4.99946 -75.31992 25270 ft 431 kts 129°
2026-04-22 21:23 4.98079 -75.29641 25152 ft 431 kts 129°
2026-04-22 21:23 4.96217 -75.27297 24899 ft 430 kts 129°
2026-04-22 21:23 4.94360 -75.24955 24653 ft 428 kts 129°
2026-04-22 21:23 4.92513 -75.22624 24282 ft 424 kts 129°
2026-04-22 21:24 4.90682 -75.20312 23546 ft 422 kts 129°
2026-04-22 21:24 4.88863 -75.18017 22920 ft 419 kts 129°
2026-04-22 21:24 4.87060 -75.15745 22385 ft 414 kts 129°
2026-04-22 21:24 4.85304 -75.13484 22073 ft 404 kts 126°
2026-04-22 21:25 4.83951 -75.11062 21787 ft 396 kts 114°
2026-04-22 21:25 4.83114 -75.08449 21440 ft 391 kts 103°
2026-04-22 21:25 4.82548 -75.05789 20914 ft 389 kts 102°
2026-04-22 21:25 4.81987 -75.03136 20416 ft 388 kts 103°
2026-04-22 21:26 4.81428 -75.00494 19934 ft 386 kts 102°
2026-04-22 21:26 4.80871 -74.97865 19500 ft 383 kts 103°
2026-04-22 21:26 4.80321 -74.95255 19020 ft 382 kts 103°
2026-04-22 21:26 4.79769 -74.92652 18557 ft 381 kts 103°
2026-04-22 21:27 4.79219 -74.90069 18149 ft 378 kts 103°
2026-04-22 21:27 4.78701 -74.87494 17688 ft 375 kts 98°
2026-04-22 21:27 4.78712 -74.84931 17409 ft 372 kts 82°
2026-04-22 21:27 4.79320 -74.82419 17161 ft 369 kts 75°
2026-04-22 21:28 4.80015 -74.79952 16913 ft 367 kts 74°
2026-04-22 21:28 4.80729 -74.77492 16643 ft 366 kts 74°
2026-04-22 21:28 4.81448 -74.75054 16405 ft 364 kts 73°
2026-04-22 21:28 4.82170 -74.72624 16166 ft 364 kts 74°
2026-04-22 21:29 4.82888 -74.70206 15923 ft 360 kts 73°
2026-04-22 21:29 4.83601 -74.67796 15683 ft 360 kts 74°
2026-04-22 21:29 4.84308 -74.65390 15448 ft 358 kts 74°
2026-04-22 21:29 4.85006 -74.63000 15241 ft 356 kts 74°
2026-04-22 21:30 4.85703 -74.60620 14986 ft 356 kts 74°
2026-04-22 21:30 4.86399 -74.58250 14642 ft 353 kts 74°
2026-04-22 21:30 4.87091 -74.55885 14169 ft 354 kts 74°
2026-04-22 21:30 4.87785 -74.53519 13791 ft 352 kts 73°
2026-04-22 21:31 4.88469 -74.51184 13521 ft 345 kts 74°
2026-04-22 21:31 4.89132 -74.48914 13438 ft 331 kts 73°
2026-04-22 21:31 4.89759 -74.46772 13304 ft 310 kts 73°
2026-04-22 21:31 4.90354 -74.44742 12962 ft 298 kts 74°
2026-04-22 21:32 4.90641 -74.42715 12751 ft 292 kts 92°
2026-04-22 21:32 4.90288 -74.40772 12776 ft 277 kts 110°
2026-04-22 21:32 4.89414 -74.39113 12797 ft 263 kts 128°
2026-04-22 21:32 4.88331 -74.37684 12816 ft 251 kts 128°
2026-04-22 21:33 4.87289 -74.36305 12836 ft 247 kts 128°
2026-04-22 21:33 4.86255 -74.34931 12839 ft 248 kts 128°
2026-04-22 21:33 4.85214 -74.33553 12608 ft 247 kts 128°
2026-04-22 21:33 4.84172 -74.32175 12321 ft 248 kts 128°
2026-04-22 21:34 4.83126 -74.30792 12017 ft 249 kts 127°
2026-04-22 21:34 4.82080 -74.29409 11712 ft 249 kts 127°
2026-04-22 21:34 4.81035 -74.28026 11413 ft 249 kts 127°
2026-04-22 21:34 4.80000 -74.26658 11115 ft 250 kts 127°
2026-04-22 21:35 4.78943 -74.25260 10828 ft 244 kts 127°
2026-04-22 21:35 4.77963 -74.23965 10537 ft 228 kts 126°
2026-04-22 21:35 4.77034 -74.22737 10275 ft 215 kts 126°
2026-04-22 21:35 4.76159 -74.21580 10017 ft 201 kts 128°
2026-04-22 21:36 4.75350 -74.20509 9787 ft 184 kts 128°
2026-04-22 21:36 4.74604 -74.19523 9538 ft 170 kts 128°
2026-04-22 21:36 4.73914 -74.18611 9315 ft 160 kts 130°
2026-04-22 21:36 4.73251 -74.17735 9093 ft 157 kts 130°
2026-04-22 21:37 4.72588 -74.16859 8847 ft 158 kts 129°
2026-04-22 21:37 4.71923 -74.15982 8625 ft 157 kts 130°
2026-04-22 21:37 4.71265 -74.15105 8420 ft 157 kts 129°
2026-04-22 21:37 4.70647 -74.14293 8367 ft 125 kts 127°
2026-04-22 21:38 4.70279 -74.13804 8364 ft 58 kts 128°
2026-04-22 21:38 4.70071 -74.13645 8367 ft 26 kts 153°
2026-04-22 21:38 4.69963 -74.13595 8367 ft 2 kts 158°
2026-04-22 21:39 4.69943 -74.13587 8366 ft 8 kts 158°
2026-04-22 21:39 4.69864 -74.13567 8366 ft 15 kts 189°
2026-04-22 21:39 4.69763 -74.13638 8366 ft 16 kts 235°
2026-04-22 21:40 4.69806 -74.13745 8366 ft 22 kts 307°
2026-04-22 21:40 4.69905 -74.13874 8366 ft 24 kts 307°
2026-04-22 21:40 4.69972 -74.13964 8366 ft 2 kts 297°
2026-04-22 21:40 4.69964 -74.13986 8366 ft 4 kts 228°
2026-04-22 21:41 4.69932 -74.14001 8366 ft 6 kts 205°
2026-04-22 21:41 4.69901 -74.14017 8366 ft 0 kts 206°
2026-04-22 21:41 4.69900 -74.14017 8366 ft 0 kts 206°